SVA303 OKKK-OTHH

Flight info

Callsign SVA303
Flight time N/A
Altitude 27000
Route BOXIK B416 IMDOX P975 LONOS L703 HAYYA
Aircraft A320/M-SDE3FGHIRWY/LB1

Departure

Time 2026-05-03 23:24
Airport Kuwait International Airport (OKKK)

Arrival

Time N/A
Airport Hamad International Airport (OTHH)
Time Latitude Longitude Altitude Speed Heading
2026-05-03 22:46 29.23659 47.96859 204 ft 0 kts 157°
2026-05-03 23:15 29.23661 47.96858 218 ft 2 kts 156°
2026-05-03 23:15 29.23683 47.96847 196 ft 2 kts 164°
2026-05-03 23:16 29.23704 47.96841 206 ft 4 kts 174°
2026-05-03 23:16 29.23726 47.96840 199 ft 1 kts 180°
2026-05-03 23:16 29.23730 47.96840 196 ft 0 kts 180°
2026-05-03 23:20 29.23725 47.96839 199 ft 6 kts 193°
2026-05-03 23:20 29.23715 47.96817 203 ft 2 kts 246°
2026-05-03 23:20 29.23689 47.96756 207 ft 9 kts 248°
2026-05-03 23:20 29.23676 47.96710 203 ft 6 kts 256°
2026-05-03 23:21 29.23669 47.96626 208 ft 12 kts 282°
2026-05-03 23:21 29.23738 47.96567 210 ft 14 kts 334°
2026-05-03 23:21 29.23828 47.96517 205 ft 14 kts 334°
2026-05-03 23:21 29.23915 47.96471 208 ft 13 kts 335°
2026-05-03 23:22 29.24068 47.96391 208 ft 12 kts 333°
2026-05-03 23:22 29.24085 47.96333 206 ft 5 kts 272°
2026-05-03 23:22 29.24076 47.96292 217 ft 6 kts 249°
2026-05-03 23:23 29.24058 47.96244 215 ft 13 kts 248°
2026-05-03 23:23 29.23976 47.96198 217 ft 16 kts 167°
2026-05-03 23:23 29.23928 47.96222 215 ft 0 kts 154°
2026-05-03 23:23 29.23921 47.96225 211 ft 8 kts 154°
2026-05-03 23:24 29.23644 47.96377 217 ft 83 kts 155°
2026-05-03 23:24 29.22903 47.96766 218 ft 146 kts 155°
2026-05-03 23:24 29.21856 47.97316 367 ft 180 kts 156°
2026-05-03 23:24 29.20715 47.97912 1062 ft 177 kts 155°
2026-05-03 23:25 29.19621 47.98544 1833 ft 177 kts 149°
2026-05-03 23:25 29.18542 47.99334 2348 ft 196 kts 143°
2026-05-03 23:25 29.17430 48.00389 2739 ft 219 kts 135°
2026-05-03 23:25 29.16337 48.01726 3081 ft 242 kts 127°
2026-05-03 23:26 29.15317 48.03373 3456 ft 265 kts 119°
2026-05-03 23:26 29.14419 48.05290 3881 ft 280 kts 115°
2026-05-03 23:26 29.13522 48.07264 4291 ft 283 kts 115°
2026-05-03 23:26 29.12593 48.09305 5140 ft 287 kts 115°
2026-05-03 23:27 29.11664 48.11345 5975 ft 292 kts 115°
2026-05-03 23:27 29.10716 48.13424 6770 ft 297 kts 115°
2026-05-03 23:27 29.09776 48.15487 7572 ft 301 kts 116°
2026-05-03 23:27 29.08793 48.17639 8371 ft 305 kts 116°
2026-05-03 23:28 29.07839 48.19721 9160 ft 309 kts 117°
2026-05-03 23:28 29.06831 48.21916 9978 ft 314 kts 117°
2026-05-03 23:28 29.05782 48.24198 10351 ft 336 kts 117°
2026-05-03 23:28 29.04662 48.26641 10669 ft 355 kts 117°
2026-05-03 23:29 29.03502 48.29170 11299 ft 362 kts 117°
2026-05-03 23:29 29.02317 48.31745 11997 ft 368 kts 118°
2026-05-03 23:29 29.01119 48.34349 12701 ft 373 kts 118°
2026-05-03 23:29 28.99905 48.36998 13420 ft 379 kts 118°
2026-05-03 23:30 28.98668 48.39703 14059 ft 384 kts 118°
2026-05-03 23:30 28.97425 48.42416 14701 ft 388 kts 118°
2026-05-03 23:30 28.96175 48.45135 15347 ft 392 kts 118°
2026-05-03 23:30 28.94888 48.47927 16002 ft 396 kts 119°
2026-05-03 23:31 28.93593 48.50729 16641 ft 400 kts 119°
2026-05-03 23:31 28.92304 48.53516 17264 ft 404 kts 119°
2026-05-03 23:31 28.90967 48.56413 17918 ft 409 kts 119°
2026-05-03 23:31 28.89711 48.59138 18462 ft 412 kts 119°
2026-05-03 23:32 28.88370 48.62050 19022 ft 416 kts 120°
2026-05-03 23:32 28.87015 48.64984 19563 ft 420 kts 120°
2026-05-03 23:32 28.85647 48.67942 19776 ft 422 kts 120°
2026-05-03 23:32 25.22161 51.64169 763 ft 417 kts 339°
2026-05-03 23:33 25.23826 51.63472 1059 ft 359 kts 339°
2026-05-03 23:33 25.25701 51.62539 3320 ft 270 kts 334°